Montgomery, AL

12:57 PM CST on February 24, 2018 (GMT -0600)
Montgomery Regional

Weather History for KMGM - January, 2013

Change the Weather History Date:

Friday, January 4, 2013

  Actual Average Record
Temperature  
Mean Temperature 43 °F 46 °F  
Max Temperature 58 °F 57 °F 78 °F (1972)
Min Temperature 28 °F 36 °F 13 °F (1919)
Degree Days  
Heating Degree Days 22 19  
Month to date heating degree days 68 76  
Since 1 July heating degree days 795 964  
Moisture  
Dew Point 27 °F    
Average Humidity 59    
Maximum Humidity 92    
Minimum Humidity 25    
Precipitation  
Precipitation 0.00 in 0.13 in 3.72 in (1926)
Month to date precipitation 0.45 0.51  
Year to date precipitation 0.45 0.51  
Snow  
Snow 0.00 in 0.00 in - ()
Month to date snowfall 0.0 0.0  
Since 1 July snowfall 0.0 0.1  
Snow Depth 0.00 in    
Sea Level Pressure  
Sea Level Pressure 30.39 in    
Wind  
Wind Speed 4 mph (NNW)    
Max Wind Speed 12 mph    
Max Gust Speed 14 mph    
Visibility 10 miles    
Events      
T = Trace of Precipitation, MM = Missing Value Source: NWS Daily Summary

Daily Weather History Graph

Daily Weather History Graph

Search for Another Location

Airport or City:

Trip Planner

Search our weather history database for the weather conditions in past years. The results will help you decide how hot, cold, wet, or windy it might be!

Date:

Astronomy

Jan. 04, 2013 Rise Set
Actual Time 6:47 AM CST 4:54 PM CST
Civil Twilight 6:20 AM CST 5:21 PM CST
Nautical Twilight 5:50 AM CST 5:51 PM CST
Astronomical Twilight 5:20 AM CST 6:21 PM CST
Moon No Moon Rise 10:56 AM CST (1/4)
Length of Visible Light 11h 00m
Length of Day
10h 06m
Waning Gibbous, 55% of the Moon is Illuminated
Jan 4
Waning Gibbous
Jan 4
Last Quarter
Jan 11
New
Jan 18
First Quarter
Jan 26
Full

Hourly Weather History & Observations

Time (CST) Temp. Windchill Dew Point Humidity Pressure Visibility Wind Dir Wind Speed Gust Speed Precip Events Conditions
12:53 AM 32.0 °F - 27.0 °F 82% 30.36 in 10.0 mi Calm Calm - N/A   Clear
1:53 AM 30.0 °F 26.5 °F 27.0 °F 88% 30.38 in 10.0 mi SW 3.5 mph - N/A   Clear
2:53 AM 30.9 °F 27.5 °F 26.1 °F 82% 30.38 in 10.0 mi WNW 3.5 mph - N/A   Clear
3:53 AM 33.1 °F 28.7 °F 27.0 °F 78% 30.36 in 10.0 mi North 4.6 mph - N/A   Clear
4:53 AM 28.9 °F 25.2 °F 26.1 °F 89% 30.37 in 10.0 mi SSW 3.5 mph - N/A   Clear
5:53 AM 28.0 °F - 25.0 °F 88% 30.39 in 8.0 mi Calm Calm - N/A   Clear
6:53 AM 28.9 °F - 26.1 °F 89% 30.40 in 7.0 mi Calm Calm - N/A   Clear
7:53 AM 35.1 °F - 28.9 °F 78% 30.43 in 10.0 mi Calm Calm - N/A   Clear
8:53 AM 39.9 °F - 30.0 °F 68% 30.45 in 10.0 mi Calm Calm - N/A   Clear
9:53 AM 45.0 °F 40.1 °F 28.0 °F 52% 30.45 in 10.0 mi NNE 9.2 mph - N/A   Clear
10:53 AM 48.9 °F - 27.0 °F 43% 30.44 in 10.0 mi North 4.6 mph - N/A   Clear
11:53 AM 52.0 °F - 27.0 °F 38% 30.41 in 10.0 mi NNW 8.1 mph - N/A   Clear
12:53 PM 55.0 °F - 25.0 °F 31% 30.39 in 10.0 mi NNW 9.2 mph - N/A   Clear
1:53 PM 55.9 °F - 23.0 °F 28% 30.36 in 10.0 mi NNW 4.6 mph - N/A   Clear
2:53 PM 57.0 °F - 23.0 °F 27% 30.35 in 10.0 mi North 9.2 mph - N/A   Clear
3:53 PM 55.9 °F - 24.1 °F 29% 30.35 in 10.0 mi NNW 8.1 mph - N/A   Clear
4:53 PM 51.1 °F - 25.0 °F 36% 30.36 in 10.0 mi North 6.9 mph - N/A   Clear
5:53 PM 50.0 °F - 26.1 °F 39% 30.39 in 10.0 mi North 3.5 mph - N/A   Clear
6:53 PM 46.0 °F - 25.0 °F 44% 30.40 in 10.0 mi Calm Calm - N/A   Clear
7:53 PM 42.1 °F - 27.0 °F 55% 30.40 in 10.0 mi Calm Calm - N/A   Clear
8:53 PM 41.0 °F 39.0 °F 27.0 °F 57% 30.40 in 10.0 mi NNW 3.5 mph - N/A   Clear
9:53 PM 37.9 °F - 28.9 °F 70% 30.41 in 10.0 mi Calm Calm - N/A   Clear
10:53 PM 37.0 °F 33.3 °F 28.9 °F 73% 30.40 in 10.0 mi North 4.6 mph - N/A   Clear
11:53 PM 39.0 °F 33.4 °F 28.9 °F 67% 30.39 in 10.0 mi North 8.1 mph - N/A   Clear